Wind_Speed
17 17 18 19 20 19 18 18 18 18 18 19 18 18 18 17 17 17 16 16 15 15 16 16 15 15 16 16 16 15 15 15 14 14 14 14 14 13 12 11 11 10 9 10 9 8 8 8 8
18 19 19 20 20 19 18 18 19 19 19 19 19 19 18 18 18 18 18 17 17 17 17 17 17 17 17 17 18 17 17 16 16 16 15 15 15 15 14 13 13 12 11 11 11 10 10 10 9
19 20 20 21 20 19 19 19 20 20 20 21 20 20 20 19 19 20 19 19 19 19 19 19 19 19 19 19 19 19 19 18 18 17 17 17 17 16 16 15 14 14 13 13 12 12 11 11 10
20 21 22 22 21 20 20 20 21 21 21 21 22 22 21 21 21 21 21 21 21 21 20 20 20 20 20 20 20 20 20 20 19 19 18 18 18 18 18 17 16 16 15 15 14 14 13 12 12
21 22 23 22 22 21 21 22 22 22 22 23 23 23 22 22 22 23 23 23 23 22 22 22 21 22 22 22 22 21 21 21 21 20 20 19 19 19 19 19 18 18 17 17 16 16 16 15 14
23 23 24 23 23 23 23 24 24 24 24 25 25 24 24 24 24 24 25 25 25 25 24 24 23 23 23 24 24 23 22 22 22 22 22 21 21 21 20 20 20 20 19 18 18 17 17 17 16
24 24 24 24 24 24 25 25 25 26 26 26 26 26 26 26 25 25 25 26 26 27 27 27 26 26 25 25 25 25 25 24 24 24 24 24 23 23 22 22 22 22 21 20 20 20 19 19 19
25 26 25 25 25 25 26 27 27 27 27 27 27 27 27 27 27 27 27 27 28 29 29 29 29 28 28 28 27 28 28 27 26 26 26 26 26 25 25 24 24 24 23 23 22 22 22 22 21
25 26 26 25 25 26 27 28 28 28 28 29 29 29 29 29 29 29 29 29 29 30 31 31 31 31 30 30 30 30 30 30 29 28 28 28 28 28 27 27 27 26 26 25 25 25 24 24 23
26 26 25 26 26 27 27 28 30 30 30 30 31 31 31 31 31 31 30 31 31 32 32 33 33 33 33 32 32 32 32 32 32 31 30 30 30 30 30 29 29 29 28 28 27 27 27 26 26
26 27 27 27 28 28 29 29 30 31 31 32 32 33 33 33 33 33 33 32 33 33 34 34 34 35 35 35 34 34 34 34 34 33 32 32 32 33 32 32 31 31 30 30 29 29 29 28 28
28 28 28 29 30 30 31 31 31 32 32 33 34 34 34 34 34 35 35 34 34 35 35 36 36 36 37 37 36 36 36 36 36 36 35 35 34 34 35 34 34 33 32 32 32 31 31 31 30
28 29 30 30 31 32 33 33 33 33 33 34 35 36 36 36 36 36 36 36 36 36 37 38 37 38 38 39 39 38 38 38 38 38 38 37 37 37 36 36 36 36 35 34 34 34 33 32 32
29 30 31 32 32 33 34 34 35 35 35 36 36 37 38 38 38 38 38 38 38 38 38 39 39 40 40 41 41 41 41 40 40 40 39 39 39 39 38 38 38 38 38 37 36 36 35 34 33
30 31 32 32 33 34 35 36 36 36 36 37 37 38 39 40 40 40 40 40 39 39 40 40 41 42 42 43 43 43 43 42 42 41 41 41 40 40 40 40 40 40 40 39 38 37 37 36 36
32 33 33 33 34 34 36 35 35 36 37 38 39 39 40 41 41 41 42 42 41 41 42 42 43 44 44 45 44 45 44 44 43 43 43 43 42 42 42 41 41 42 41 41 40 40 39 38 38
33 34 34 33 34 35 36 36 36 37 38 38 39 40 40 41 41 42 42 42 42 42 43 43 45 45 45 46 46 46 45 45 45 45 45 44 44 43 43 43 42 42 42 42 42 42 41 41 40
33 33 34 34 34 36 37 36 37 38 39 40 40 41 41 41 41 42 42 42 43 43 44 43 44 46 46 46 46 46 46 46 47 47 46 46 46 45 45 45 45 45 44 44 44 43 43 43 42
33 34 34 34 36 37 37 37 38 39 40 40 40 41 41 42 42 42 43 44 44 44 45 45 45 46 47 47 46 46 46 46 47 47 47 47 47 47 47 46 47 46 46 46 46 46 46 46 45
33 34 34 35 36 37 37 37 37 38 39 39 39 40 42 43 43 43 43 44 44 44 45 46 46 46 47 47 47 47 47 47 47 47 48 47 47 48 48 48 48 48 47 47 48 48 47 47 47
33 33 33 34 35 36 37 36 35 36 37 38 39 40 41 42 43 43 43 44 44 45 45 46 46 47 47 47 47 47 47 47 47 47 48 48 49 49 50 49 49 49 49 49 49 49 49 48 48
32 32 33 34 35 35 35 37 34 35 36 37 37 38 40 41 42 42 43 44 45 46 46 47 48 48 48 48 47 47 47 47 48 48 48 49 50 51 51 50 50 50 50 50 50 49 50 50 50
32 32 33 34 35 35 35 38 36 36 36 35 36 37 38 40 41 41 42 44 45 45 46 47 47 48 49 49 48 48 48 48 49 49 50 50 50 51 51 51 52 52 52 51 51 51 51 51 51
33 33 34 35 35 36 35 37 37 35 35 35 36 36 37 39 40 40 41 43 43 45 46 47 47 48 50 50 49 49 49 49 50 50 50 51 52 52 52 53 53 54 53 53 53 53 53 53 53
33 33 35 36 36 37 36 38 37 36 36 36 36 36 37 38 39 40 41 41 42 44 45 46 47 48 50 50 50 50 50 50 51 51 52 52 52 53 54 54 54 55 55 55 55 55 54 54 55
33 34 35 37 38 38 37 38 36 36 37 37 37 37 37 38 38 39 40 40 41 42 43 44 45 47 50 51 51 51 52 52 52 52 53 53 54 54 55 55 56 56 56 57 58 56 56 56 56
34 35 35 37 39 40 40 39 37 37 37 37 37 37 38 38 38 39 39 40 40 40 41 43 44 45 48 49 50 51 52 53 53 53 53 54 55 55 55 56 56 57 57 58 58 58 57 57 57
35 35 36 37 40 41 41 40 38 37 37 38 39 38 38 38 38 38 38 39 40 41 41 42 42 44 46 48 50 50 51 52 54 54 54 54 54 54 55 56 58 58 58 59 58 58 58 58 57
35 35 36 38 40 42 42 40 38 38 39 38 39 39 39 38 38 38 38 38 39 40 40 41 43 44 46 47 48 49 50 51 53 54 55 55 55 55 55 56 57 59 59 59 59 59 59 58 58
36 36 36 37 39 41 43 40 37 38 38 39 39 40 40 40 40 39 38 38 38 39 40 41 42 44 45 46 47 49 49 49 51 53 54 55 56 56 56 56 57 58 58 59 59 60 60 60 59
Wind_Direction
255 254 253 252 253 253 254 253 252 251 250 251 252 253 254 253 252 253 253 252 252 253 253 253 252 252 249 249 249 250 250 250 250 249 248 248 248 246 245 244 242 245 245 244 244 243 243 245 245
256 256 254 253 254 255 255 254 253 251 251 251 252 252 253 253 253 253 252 252 252 254 255 255 254 253 252 251 250 250 251 250 250 250 249 248 247 246 244 246 245 246 247 248 246 243 242 244 245
257 256 255 254 255 256 255 254 253 254 254 253 252 252 254 254 254 254 254 254 253 254 255 255 255 254 253 254 253 251 251 251 250 250 251 250 247 246 246 246 247 247 247 249 249 246 245 245 246
258 257 257 256 256 256 255 255 254 255 256 256 255 255 255 255 255 255 254 254 254 254 254 255 255 256 255 255 254 253 252 251 251 251 252 252 250 248 248 249 249 248 248 248 250 249 250 248 247
258 258 258 257 257 255 255 255 255 256 257 257 257 257 256 256 256 256 256 255 255 255 255 254 255 256 256 255 254 253 252 250 250 251 251 252 251 249 248 249 250 250 250 249 252 252 251 250 248
260 260 260 258 257 255 255 255 256 256 257 258 258 258 257 257 257 257 257 256 255 255 255 255 255 257 257 256 255 254 254 252 250 251 252 253 252 252 251 250 251 251 251 251 250 251 251 251 252
261 261 260 259 257 256 256 256 257 258 258 258 258 259 258 258 258 258 258 257 256 255 255 255 255 255 256 256 256 255 253 252 251 252 253 253 254 253 253 252 252 251 251 251 252 251 251 253 253
262 262 261 260 258 257 257 257 257 258 258 258 258 259 259 259 258 259 259 259 257 256 256 256 256 255 255 255 256 255 254 253 252 251 252 253 254 254 253 254 253 252 252 252 252 252 252 254 254
264 263 262 261 259 258 257 257 257 258 259 259 259 260 260 260 260 260 260 259 258 257 256 256 256 256 255 255 256 256 255 255 254 253 253 253 253 254 254 254 253 252 252 252 252 252 254 254 255
265 264 263 263 261 260 259 259 258 258 259 259 260 260 260 260 260 260 260 260 259 257 257 256 256 256 256 255 255 256 256 255 255 255 255 255 254 254 254 253 253 253 253 253 253 253 254 255 256
265 265 265 264 263 261 260 260 260 260 259 259 260 260 260 260 260 260 261 260 259 259 258 257 257 257 257 256 255 255 256 255 255 256 256 256 256 255 254 253 253 254 253 253 253 253 254 255 255
267 266 266 265 265 263 262 261 261 262 262 260 260 260 260 260 260 260 261 261 260 259 259 258 257 258 258 257 256 256 256 256 255 255 255 256 256 256 254 253 253 253 253 253 254 253 254 255 255
269 268 267 267 266 265 264 263 262 262 263 262 261 261 260 260 260 260 260 261 260 260 260 259 258 258 258 258 257 257 256 256 256 256 255 255 255 255 255 254 253 253 253 253 253 253 254 255 256
272 271 269 268 267 266 265 264 264 264 264 264 263 262 260 260 260 260 261 261 261 260 260 260 259 258 258 258 257 257 257 257 257 258 256 255 254 254 254 254 253 253 254 253 252 253 254 255 256
274 273 272 270 269 267 266 265 266 265 265 265 265 264 263 261 261 261 261 261 261 261 260 260 260 259 259 259 258 259 258 257 256 256 256 255 254 254 254 254 253 253 253 253 252 253 254 255 255
276 275 274 272 270 269 268 268 267 266 266 266 265 265 264 263 262 262 262 262 262 261 261 261 261 261 260 259 259 259 257 256 256 255 255 254 254 254 253 253 253 253 252 252 252 253 254 255 254
278 278 276 273 271 271 270 270 269 268 267 267 267 266 265 264 263 263 262 262 263 262 262 262 263 262 261 259 259 258 256 256 256 256 255 254 254 253 253 253 253 253 252 252 252 253 254 254 254
282 280 277 275 274 273 272 271 270 270 269 268 268 267 266 265 264 263 264 264 264 263 263 264 263 262 261 259 259 258 257 257 256 256 255 255 254 254 253 252 252 252 252 252 252 252 253 255 256
283 282 279 278 276 275 275 273 272 271 271 270 269 267 266 266 264 264 265 265 265 265 265 264 262 262 261 259 258 257 257 257 256 256 256 255 255 255 254 253 252 252 252 252 252 252 253 255 256
284 283 281 279 277 277 276 274 273 273 273 272 270 269 268 267 265 265 266 267 266 265 265 263 261 260 260 259 257 256 257 258 257 257 256 255 254 255 255 254 253 251 252 253 252 252 253 255 256
285 284 283 282 279 278 278 275 274 274 274 274 273 272 270 268 266 266 266 267 267 265 264 263 262 259 258 257 257 256 257 257 257 257 256 255 255 255 254 254 252 252 252 253 254 253 254 255 256
286 285 283 282 281 281 280 278 276 275 275 275 275 274 273 270 268 267 267 266 266 265 264 263 262 260 258 256 256 256 256 255 256 256 256 255 255 254 253 253 254 253 253 253 254 254 254 256 257
288 286 284 283 282 281 280 280 279 278 277 278 278 277 276 273 271 269 268 267 267 266 264 262 260 260 258 256 256 257 257 256 256 256 256 255 255 255 255 255 255 255 254 254 255 255 256 256 258
288 287 284 282 282 281 282 283 283 282 282 282 281 281 279 276 274 271 270 271 269 267 265 263 260 260 260 258 256 257 257 257 256 256 256 256 256 256 256 256 256 256 255 256 256 256 256 257 258
287 289 287 284 283 284 284 284 285 285 285 285 285 284 281 278 275 273 272 273 271 269 267 265 263 261 260 258 257 257 257 257 257 256 256 256 257 257 257 257 256 256 256 257 257 257 257 258 259
287 288 288 287 287 287 286 285 287 287 287 287 287 286 282 280 278 275 273 273 273 270 268 266 265 263 261 258 257 257 257 257 257 257 257 257 258 258 258 258 258 257 257 257 257 258 258 259 259
287 287 288 287 287 287 287 287 287 289 289 289 288 286 284 281 280 276 273 273 275 272 270 268 267 264 261 259 259 259 259 258 258 258 258 258 259 259 259 259 259 259 259 258 258 258 258 259 259
287 288 289 287 287 288 288 288 289 290 290 291 289 287 284 281 278 276 274 274 275 274 272 269 268 266 263 261 261 260 259 258 258 258 259 259 259 260 260 260 260 260 260 260 259 258 257 257 258
287 287 288 288 287 287 289 290 291 291 292 292 290 288 285 282 280 277 276 276 277 275 272 271 270 267 265 264 263 261 259 258 258 258 259 260 260 261 261 261 262 262 262 262 260 259 258 257 257
287 288 287 287 287 287 288 290 290 290 291 291 290 288 285 282 281 279 278 278 278 276 274 274 272 269 267 266 264 262 261 259 259 260 261 261 261 261 261 262 262 263 263 262 262 260 258 257 258
Height
5796 5797 5798 5799 5800 5801 5803 5805 5805 5806 5807 5808 5809 5810 5811 5813 5815 5818 5817 5817 5817 5818 5819 5820 5820 5821 5822 5823 5825 5826 5827 5828 5828 5829 5830 5832 5833 5834 5835 5836 5837 5838 5838 5840 5841 5842 5843 5844 5845
5793 5794 5795 5796 5796 5798 5800 5801 5801 5802 5803 5804 5805 5806 5808 5809 5810 5811 5812 5813 5814 5815 5816 5816 5817 5818 5819 5820 5821 5823 5824 5825 5826 5826 5827 5829 5830 5831 5832 5833 5834 5835 5836 5838 5839 5840 5841 5842 5843
5789 5790 5792 5792 5793 5795 5796 5797 5797 5798 5799 5800 5801 5803 5804 5806 5806 5807 5808 5809 5810 5811 5812 5813 5814 5815 5815 5817 5818 5819 5820 5821 5822 5823 5824 5825 5826 5828 5829 5830 5831 5833 5834 5835 5836 5837 5839 5840 5841
5786 5786 5787 5788 5789 5791 5792 5792 5793 5794 5795 5796 5797 5799 5800 5802 5802 5803 5804 5805 5806 5807 5808 5809 5810 5811 5812 5813 5814 5815 5816 5817 5818 5820 5821 5822 5823 5824 5826 5827 5828 5829 5831 5832 5834 5835 5836 5837 5838
5781 5782 5783 5784 5785 5786 5787 5788 5788 5789 5790 5791 5793 5794 5795 5797 5797 5798 5799 5800 5801 5802 5803 5804 5806 5807 5808 5809 5810 5811 5812 5813 5814 5816 5817 5818 5819 5821 5822 5823 5825 5826 5827 5829 5830 5831 5833 5834 5835
5777 5777 5778 5779 5780 5781 5782 5783 5784 5785 5786 5786 5788 5789 5790 5791 5792 5793 5794 5795 5796 5797 5798 5799 5801 5802 5803 5804 5805 5806 5807 5808 5810 5811 5813 5814 5815 5816 5818 5819 5821 5822 5824 5825 5826 5828 5829 5830 5832
5772 5772 5773 5774 5775 5776 5777 5777 5778 5779 5780 5781 5782 5783 5785 5786 5786 5787 5788 5789 5790 5792 5793 5794 5795 5796 5798 5799 5800 5801 5802 5803 5805 5806 5808 5809 5811 5812 5813 5815 5816 5818 5819 5821 5822 5823 5825 5826 5827
5766 5767 5767 5768 5769 5770 5771 5771 5772 5773 5774 5776 5776 5778 5779 5780 5780 5781 5782 5783 5784 5785 5787 5788 5789 5790 5792 5793 5794 5795 5797 5798 5799 5801 5802 5804 5805 5807 5808 5810 5811 5813 5814 5816 5817 5819 5820 5822 5823
5760 5761 5761 5762 5763 5764 5765 5765 5766 5767 5768 5769 5770 5771 5772 5773 5774 5775 5776 5777 5778 5779 5780 5781 5783 5784 5785 5787 5788 5789 5790 5792 5793 5795 5796 5798 5799 5801 5803 5804 5806 5807 5809 5810 5812 5814 5815 5817 5818
5754 5755 5756 5756 5757 5757 5758 5759 5759 5760 5761 5763 5763 5764 5765 5766 5767 5768 5769 5770 5771 5772 5773 5774 5776 5777 5778 5780 5781 5782 5784 5785 5787 5788 5790 5791 5793 5794 5796 5798 5800 5801 5803 5804 5806 5808 5809 5811 5813
5747 5748 5749 5749 5749 5750 5750 5751 5752 5753 5754 5755 5756 5756 5757 5758 5759 5760 5761 5762 5763 5764 5765 5767 5768 5769 5771 5772 5774 5775 5776 5778 5779 5781 5782 5784 5786 5788 5789 5791 5793 5795 5797 5798 5800 5802 5803 5805 5806
5741 5741 5741 5742 5742 5742 5743 5744 5744 5745 5747 5747 5747 5748 5749 5750 5751 5752 5753 5754 5755 5756 5757 5759 5760 5761 5762 5764 5765 5767 5768 5770 5771 5773 5775 5776 5778 5780 5782 5784 5785 5787 5789 5791 5793 5795 5796 5798 5800
5734 5734 5734 5734 5734 5734 5734 5735 5736 5737 5737 5738 5738 5739 5740 5741 5742 5743 5744 5745 5746 5747 5748 5750 5751 5752 5753 5755 5756 5758 5760 5761 5763 5764 5766 5768 5770 5771 5773 5775 5777 5779 5781 5783 5785 5787 5789 5791 5792
5726 5726 5726 5726 5725 5725 5725 5726 5727 5728 5728 5728 5729 5730 5730 5732 5733 5734 5735 5736 5737 5738 5739 5740 5742 5743 5744 5745 5747 5748 5750 5752 5753 5755 5756 5758 5760 5762 5764 5766 5769 5771 5773 5775 5777 5779 5781 5783 5785
5719 5718 5718 5718 5717 5717 5717 5718 5719 5718 5718 5719 5719 5720 5720 5721 5722 5724 5725 5726 5728 5728 5729 5730 5731 5733 5734 5735 5736 5738 5740 5741 5743 5744 5746 5748 5750 5752 5754 5757 5759 5761 5763 5766 5768 5770 5772 5774 5776
5711 5710 5710 5710 5708 5708 5709 5709 5709 5708 5708 5709 5709 5709 5710 5711 5712 5713 5714 5716 5717 5718 5719 5720 5720 5721 5723 5724 5725 5726 5728 5730 5731 5733 5735 5737 5739 5741 5744 5746 5748 5751 5753 5756 5758 5760 5763 5765 5767
5703 5702 5701 5701 5700 5699 5698 5700 5700 5698 5698 5699 5699 5699 5699 5700 5701 5702 5703 5705 5706 5707 5708 5708 5709 5710 5711 5712 5713 5715 5716 5718 5720 5722 5723 5726 5728 5730 5732 5735 5737 5740 5742 5745 5748 5750 5753 5755 5757
5695 5693 5692 5692 5690 5689 5689 5690 5689 5688 5688 5688 5688 5688 5688 5689 5690 5690 5691 5693 5694 5695 5696 5696 5697 5697 5698 5699 5701 5702 5704 5706 5708 5709 5712 5714 5716 5718 5721 5723 5726 5728 5731 5734 5737 5739 5742 5744 5746
5685 5684 5683 5682 5680 5679 5679 5679 5678 5677 5677 5677 5676 5676 5677 5678 5678 5679 5680 5681 5682 5682 5683 5683 5684 5684 5685 5687 5688 5690 5692 5693 5695 5697 5699 5701 5703 5706 5708 5711 5714 5716 5719 5722 5725 5728 5730 5733 5735
5676 5674 5673 5672 5670 5668 5668 5668 5668 5666 5666 5665 5665 5665 5665 5665 5666 5667 5667 5668 5669 5669 5669 5670 5670 5671 5672 5674 5676 5678 5679 5681 5683 5684 5686 5688 5691 5693 5696 5698 5701 5704 5707 5710 5712 5715 5718 5721 5723
5668 5666 5664 5662 5660 5658 5656 5657 5658 5657 5655 5655 5654 5653 5653 5653 5653 5653 5654 5654 5655 5655 5656 5656 5656 5657 5659 5660 5662 5664 5666 5668 5670 5671 5673 5675 5677 5679 5682 5685 5688 5691 5694 5697 5699 5702 5705 5708 5710
5659 5657 5654 5652 5650 5648 5647 5644 5648 5647 5646 5645 5644 5643 5642 5641 5641 5641 5640 5640 5641 5641 5642 5642 5643 5643 5645 5647 5649 5651 5653 5655 5657 5658 5660 5662 5663 5666 5668 5671 5674 5677 5680 5683 5685 5688 5691 5694 5696
5651 5648 5645 5643 5640 5639 5638 5635 5638 5637 5636 5635 5634 5632 5631 5629 5628 5628 5628 5627 5627 5627 5628 5628 5629 5630 5631 5633 5635 5638 5640 5642 5643 5645 5646 5648 5650 5652 5654 5657 5659 5662 5665 5668 5671 5674 5677 5680 5682
5642 5639 5636 5634 5631 5630 5630 5626 5626 5627 5626 5625 5623 5622 5620 5618 5617 5616 5615 5615 5614 5614 5614 5615 5615 5617 5618 5619 5622 5624 5626 5628 5629 5631 5633 5635 5636 5638 5640 5643 5645 5648 5651 5654 5657 5660 5663 5665 5668
5633 5631 5627 5624 5622 5621 5620 5617 5618 5617 5616 5614 5613 5611 5609 5607 5606 5604 5604 5603 5602 5601 5602 5601 5602 5603 5604 5606 5608 5610 5612 5613 5615 5617 5619 5621 5622 5624 5626 5628 5631 5633 5636 5639 5641 5644 5647 5650 5652
5625 5622 5619 5616 5613 5612 5610 5608 5610 5608 5606 5604 5602 5600 5598 5597 5595 5593 5592 5591 5590 5589 5589 5589 5589 5590 5591 5593 5595 5596 5598 5599 5601 5602 5604 5606 5608 5610 5612 5614 5616 5618 5621 5623 5626 5629 5632 5634 5636
5616 5613 5611 5607 5603 5601 5600 5600 5600 5598 5595 5593 5592 5590 5587 5586 5584 5582 5581 5579 5578 5578 5577 5577 5576 5577 5578 5579 5581 5582 5583 5584 5586 5588 5590 5591 5594 5595 5597 5599 5601 5603 5605 5607 5609 5612 5615 5618 5620
5608 5605 5602 5598 5594 5591 5590 5590 5590 5588 5585 5583 5581 5579 5576 5574 5573 5571 5570 5568 5567 5566 5565 5564 5564 5564 5565 5566 5567 5568 5569 5570 5571 5573 5575 5577 5578 5580 5582 5584 5585 5587 5589 5591 5593 5596 5598 5601 5603
5599 5597 5592 5589 5585 5582 5579 5583 5581 5578 5575 5573 5570 5568 5566 5564 5562 5560 5559 5558 5556 5555 5553 5553 5552 5552 5552 5552 5553 5553 5554 5555 5556 5558 5560 5562 5563 5565 5567 5568 5570 5571 5573 5574 5576 5579 5582 5585 5587
5589 5587 5584 5581 5578 5573 5570 5573 5571 5569 5565 5562 5559 5557 5555 5553 5551 5549 5548 5546 5545 5543 5542 5541 5540 5539 5539 5539 5539 5540 5540 5541 5542 5544 5546 5547 5548 5550 5551 5552 5554 5555 5557 5558 5560 5563 5565 5568 5571